Powrót do katalogu

STARLINK-3999

AktywnyŁącznośćVLEO
NORAD 52704·PAYLOAD·🇺🇸 United States

Wystrzelony May 18, 2022 z Cape Canaveral Space Force Station

Loading…

Następne Przeloty (najbliższe 24 godziny)

TLE

ŚwieżeSource: CelesTrak SupGP

Epoka: Sep 15, 2026, 02:31 UTC

1 52704C 22053BA  26258.10534722  .00029459  00000+0  84295-3 0  2584
2 52704  53.1585 352.1467 0001085  93.9611   0.1365 15.35380512    17

Śledź STARLINK-3999 w czasie rzeczywistym z AllMySat

Download on the App Store